Location: Cieszkowy
(50.3290°N, 20.5336°E)
Time: 22:46:30
(UTC+00:00)

Cosmos 1536 Rocket - Pass Details

Date: 15 June 2024
Orbit: 601 x 630 km, 82.5° (Epoch: 18 July)

Event Time Altitude Azimuth Distance (km) Brightness Sun altitude
Exits shadow 00:49:51 13° 188° (S) 1,815 5.4 -10.8°
Maximum altitude 00:53:50 88° 109° (ESE) 634 3.6 -10.5°
Drops below altitude 10° 00:58:18 10° 10° (N) 2,004 7.4 -10.1°
Sets 01:00:32 0° 11° (N) 2,911 8.5 -9.9°
